Regional Weather Roundup
Issued by NWS Sterling, VA

Home | Current Version | Previous Version | Text Only | Print | Product List | Glossary On
Versions: 1 2 3 4 5 6 7 8 9 10 11 12 13 14 15 16 17 18 19 20 21 22 23 24 25 26 27 28 29 30 31 32 33 34 35 36 37 38 39 40 41 42 43 44 45 46 47 48 49 50
000
ASUS41 KLWX 120810
RWRLWX

REGIONAL WEATHER ROUNDUP
NATIONAL WEATHER SERVICE BALTIMORE MD/WASHINGTON DC
400 AM EDT SAT JUL 12 2014

Note: "FAIR" indicates few or no clouds below 12,000 feet
with no significant weather and/or obstructions to visibility.
 TC=TEMPERATURE CELSIUS

 * =Non NWS site. Station does not report precipitation (e.g. rain,
    snow, etc.), thunder, or fog.

DCZ001-MDZ009-015-VAZ040>042-051-053>054-120900-
WASHINGTON METRO

CITY           SKY/WX    TMP DP  RH WIND       PRES   REMARKS
WASHINGTON NAT PTCLDY    75  68  78 S8        30.21S
DULLES         PTCLDY    68  66  93 CALM      30.21S
ANDREWS AFB    CLEAR     70  69  99 S2        30.21S
FT BELVOIR     CLEAR     68  66  94 CALM      30.21S FOG
QUANTICO       CLEAR     73  69  87 SW5       30.21F
COLLEGE PARK*  CLEAR     70  70 100 CALM      30.21R
LEESBURG*      MOCLDY    70  70 100 S3        30.22S
MANASSAS*        N/A     68  68 100 CALM      30.21S
GAITHERSBURG*  CLEAR     66  64  94 CALM      30.25S

$$

MDZ006>007-011-014-120900-
BALTIMORE METRO

CITY           SKY/WX    TMP DP  RH WIND       PRES   REMARKS
BWI AIRPORT    PTCLDY    70  67  90 CALM      30.20S
MD SCIENCE CTR   N/A     76  68  76 MISG      30.21S
MARTIN STATE   MOCLDY    73  72  94 CALM      30.22S
ANNAPOLIS      CLEAR     74  69  85 CALM      30.20S
FORT MEADE*    CLEAR     64  63  94 CALM      30.23S

$$

MDZ012-015-019>023-120900-
MARYLAND EASTERN SHORE

CITY           SKY/WX    TMP DP  RH WIND       PRES   REMARKS
OCEAN CITY     FOG       62  61  96 CALM      30.21S VSB 1
SALISBURY      FOG       66  64  93 CALM      30.21S VSB 1/4
BAY BRIDGE AP*   N/A     72  70  94 S6        30.20F
CAMBRIDGE*     CLOUDY    70  66  88 CALM      30.21S VSB 1
EASTON*        CLEAR     69  69 100 CALM      30.25S

$$

MDZ017>025-120900-
SOUTHERN MARYLAND

CITY           SKY/WX    TMP DP  RH WIND       PRES   REMARKS
PATUXENT RIVER CLEAR     70  68  93 SW5       30.21S
ST INIGOES     MOCLDY    70  67  90 CALM      30.20F FOG
LEONARDTOWN*   PTCLDY    70  68  94 MISG      30.23R

$$

MDZ003>005-120900-
NORTH CENTRAL MARYLAND

CITY           SKY/WX    TMP DP  RH WIND       PRES   REMARKS
FREDERICK*     MOCLDY    66  66 100 CALM      30.23S FOG
HAGERSTOWN APT PTCLDY    71  65  81 S5        30.20F
WESTMINSTER*   PTCLDY    72  66  83 S3        30.22S

$$

MDZ501>502-120900-
WESTERN MARYLAND

CITY           SKY/WX    TMP DP  RH WIND       PRES   REMARKS
OAKLAND*       PTCLDY    63  55  77 SW5       30.29S
CUMBERLAND*    PTCLDY    66  63  88 CALM      30.25S

$$

VAZ025>031-120900-
SHENANDOAH VALLEY

CITY           SKY/WX    TMP DP  RH WIND       PRES   REMARKS
WINCHESTER*    MOCLDY    64  63  94 CALM      30.21S
STAUNTON*      MOCLDY    66  63  90 CALM      30.25S

$$

WVZ021-048>050-054>055-120900-
EASTERN WEST VIRGINIA PANHANDLE

CITY           SKY/WX    TMP DP  RH WIND       PRES   REMARKS
MARTINSBURG    PTCLDY    66  62  87 CALM      30.21S FOG
PETERSBURG*    PTCLDY    62  58  88 CALM      30.23R FOG

$$

VAZ036>039-050-120900-
CENTRAL FOOTHILLS

CITY           SKY/WX    TMP DP  RH WIND       PRES   REMARKS
CHARLOTTESVILL CLOUDY    69  67  93 CALM      30.21S
ORANGE*        CLOUDY    68  64  88 CALM      30.22F

$$

VAZ055>057-120900-
NORTH AND CENTRAL PIEDMONT

CITY           SKY/WX    TMP DP  RH WIND       PRES   REMARKS
FREDERICKSBRG* CLEAR     71  70  99 CALM      30.20S
STAFFORD*      CLEAR     64  64 100 CALM      30.25S FOG

$$

NCZ024-NYZ072-PAZ021-071-VAZ022-071-120900-
OTHER REGIONAL OBSERVATIONS

CITY           SKY/WX    TMP DP  RH WIND       PRES   REMARKS
NEW YORK CITY  PTCLDY    72  61  68 CALM      30.24S
PHILADELPHIA   PTCLDY    71  63  75 S3        30.22S
PITTSBURGH     CLOUDY    66  60  81 CALM      30.19S
ROANOKE        CLEAR     67  64  90 CALM      30.25S
RICHMOND       PTCLDY    71  69  93 CALM      30.22S FOG
RALEIGH        PTCLDY    68  65  90 CALM      30.22S FOG

$$

ANZ530>537-120900-
MARINE OBSERVATIONS

STATION/POSITION TIME  TEMP    WIND        PRES
                       AIR SEA DIR/SP/G
                 (UTC) (F)     (DEG/KT/KT) (MB)
THOMAS PT LIGHT  0800   74 79  160/ 11/ 12 1023.0F
BALT KEY BRIDGE  0800   75     140/  7/  8 1022.3S
COVE POINT       0800   73     220/  7/  8 1022.8R
LEWISETTA        0800   73 81  180/  3/  4 1022.8S
SOLOMONS ISLAND  0800      81                N/A
PINEY POINT      0800          190/  6/  8   N/A

$$




USA.gov is the U.S. government's official web portal to all federal, state and local government web resources and services.